• In Hungary
  • List of Countries
  • For 7 days
  • Water Temperature
  • Satellite Maps
  • Weather Map
  • News
  • Weather Widgets
  • user-avatar
    Login

    Hourly Weather Mutare

    Today, 13 November, Tuesday

    Time Temperature Precipitation Wind Pressure Humidity
    00:00 +14°C° 0 mm 1 mps 655 mmHg 77%
    01:00 +13°C° 0 mm 1 mps 654 mmHg 82%
    02:00 +13°C° 0 mm 1 mps 654 mmHg 87%
    03:00 +12°C° 0 mm 1 mps 654 mmHg 89%
    04:00 +12°C° 0 mm 1 mps 654 mmHg 90%
    05:00 +12°C° 0 mm 1 mps 654 mmHg 91%
    06:00 +15°C° 0 mm 1 mps 655 mmHg 77%
    07:00 +19°C° 0 mm 1 mps 656 mmHg 63%
    08:00 +22°C° 0 mm 1 mps 657 mmHg 50%
    09:00 +24°C° 0 mm 2 mps 657 mmHg 41%
    10:00 +26°C° 0 mm 2 mps 658 mmHg 32%
    11:00 +28°C° 0 mm 3 mps 658 mmHg 23%
    12:00 +29°C° 0 mm 3 mps 657 mmHg 21%
    13:00 +29°C° 0 mm 3 mps 657 mmHg 19%
    14:00 +29°C° 0 mm 3 mps 656 mmHg 20%
    15:00 +28°C° 0 mm 3 mps 656 mmHg 22%
    16:00 +27°C° 0 mm 3 mps 655 mmHg 23%
    17:00 +26°C° 0 mm 3 mps 655 mmHg 25%
    18:00 +22°C° 0 mm 3 mps 655 mmHg 34%
    19:00 +20°C° 0 mm 2 mps 654 mmHg 42%
    20:00 +18°C° 0 mm 1 mps 654 mmHg 51%
    21:00 +16°C° 0 mm 1 mps 654 mmHg 58%
    22:00 +15°C° 0 mm 1 mps 654 mmHg 65%
    23:00 +14°C° 0 mm 1 mps 654 mmHg 71%

    Tomorrow, 14 November, Wednesday

    Time Temperature Precipitation Wind Pressure Humidity
    00:00 +14°C° 0 mm 1 mps 653 mmHg 77%
    01:00 +13°C° 0 mm 1 mps 653 mmHg 82%
    02:00 +13°C° 0 mm 1 mps 652 mmHg 87%
    03:00 +12°C° 0 mm 1 mps 652 mmHg 88%
    04:00 +12°C° 0 mm 1 mps 652 mmHg 90%
    05:00 +12°C° 0 mm 1 mps 652 mmHg 91%
    06:00 +15°C° 0 mm 1 mps 653 mmHg 75%
    07:00 +19°C° 0 mm 1 mps 655 mmHg 58%
    08:00 +23°C° 0 mm 1 mps 656 mmHg 42%
    09:00 +25°C° 0 mm 2 mps 656 mmHg 35%
    10:00 +27°C° 0 mm 2 mps 656 mmHg 27%
    11:00 +29°C° 0 mm 3 mps 657 mmHg 19%
    12:00 +30°C° 0 mm 3 mps 656 mmHg 18%
    13:00 +30°C° 0 mm 3 mps 656 mmHg 17%
    14:00 +32°C° 0 mm 4 mps 655 mmHg 15%
    15:00 +30°C° 0 mm 4 mps 655 mmHg 18%
    16:00 +29°C° 0 mm 4 mps 654 mmHg 20%
    17:00 +27°C° 0 mm 4 mps 654 mmHg 22%
    18:00 +25°C° 0 mm 3 mps 653 mmHg 30%
    19:00 +21°C° 0 mm 2 mps 653 mmHg 38%
    20:00 +18°C° 0 mm 2 mps 653 mmHg 47%
    21:00 +18°C° 0 mm 1 mps 653 mmHg 55%
    22:00 +16°C° 0 mm 1 mps 653 mmHg 63%
    23:00 +15°C° 0 mm 1 mps 653 mmHg 72%

    Day after tomorrow, 15 November, Thursday

    Time Temperature Precipitation Wind Pressure Humidity
    00:00 +15°C° 0 mm 1 mps 653 mmHg 77%
    01:00 +14°C° 0 mm 1 mps 653 mmHg 83%
    02:00 +13°C° 0 mm 1 mps 652 mmHg 89%
    03:00 +13°C° 0 mm 1 mps 652 mmHg 89%
    04:00 +13°C° 0 mm 1 mps 652 mmHg 90%
    05:00 +13°C° 0 mm 1 mps 652 mmHg 91%
    06:00 +16°C° 0 mm 1 mps 654 mmHg 72%
    07:00 +20°C° 0 mm 1 mps 655 mmHg 53%
    08:00 +24°C° 0 mm 2 mps 656 mmHg 35%
    09:00 +26°C° 0 mm 2 mps 657 mmHg 30%
    10:00 +28°C° 0 mm 3 mps 657 mmHg 24%
    11:00 +30°C° 0 mm 3 mps 657 mmHg 19%
    12:00 +31°C° 0 mm 3 mps 656 mmHg 19%
    13:00 +32°C° 0 mm 4 mps 656 mmHg 19%
    14:00 +32°C° 0 mm 4 mps 655 mmHg 19%
    15:00 +30°C° 0 mm 4 mps 655 mmHg 24%
    16:00 +29°C° 0 mm 4 mps 654 mmHg 28%
    17:00 +28°C° 0 mm 4 mps 654 mmHg 32%
    18:00 +25°C° 0 mm 3 mps 654 mmHg 43%
    19:00 +22°C° 0 mm 3 mps 654 mmHg 55%
    20:00 +20°C° 0 mm 2 mps 654 mmHg 66%
    21:00 +19°C° 0 mm 2 mps 654 mmHg 73%
    22:00 +19°C° 0 mm 1 mps 654 mmHg 79%
    23:00 +18°C° 0 mm 1 mps 654 mmHg 86%

    16 November, Friday

    Time Temperature Precipitation Wind Pressure Humidity
    00:00 +18°C° 0 mm 1 mps 654 mmHg 88%
    01:00 +16°C° 0 mm 1 mps 654 mmHg 90%
    02:00 +16°C° 0 mm 1 mps 653 mmHg 93%
    03:00 +15°C° 0 mm 1 mps 653 mmHg 93%
    04:00 +15°C° 0 mm 1 mps 653 mmHg 93%
    05:00 +15°C° 0 mm 1 mps 653 mmHg 93%
    06:00 +19°C° 0 mm 1 mps 655 mmHg 77%
    07:00 +23°C° 0 mm 1 mps 656 mmHg 60%
    08:00 +26°C° 0 mm 1 mps 657 mmHg 43%
    09:00 +29°C° 0 mm 1 mps 658 mmHg 37%
    10:00 +31°C° 0 mm 1 mps 658 mmHg 30%
    11:00 +34°C° 0 mm 2 mps 658 mmHg 24%
    12:00 +34°C° 0 mm 2 mps 657 mmHg 22%
    13:00 +35°C° 0 mm 2 mps 657 mmHg 21%
    14:00 +35°C° 0 mm 3 mps 656 mmHg 20%
    15:00 +34°C° 0 mm 3 mps 655 mmHg 22%
    16:00 +33°C° 0 mm 3 mps 655 mmHg 24%
    17:00 +30°C° 0 mm 4 mps 655 mmHg 26%
    18:00 +28°C° 0 mm 3 mps 655 mmHg 33%
    19:00 +26°C° 0 mm 3 mps 655 mmHg 40%
    20:00 +23°C° 0 mm 2 mps 655 mmHg 47%
    21:00 +21°C° 0 mm 2 mps 655 mmHg 56%
    22:00 +20°C° 0 mm 2 mps 655 mmHg 66%
    23:00 +20°C° 0 mm 1 mps 655 mmHg 76%

    17 November, Saturday

    Time Temperature Precipitation Wind Pressure Humidity
    00:00 +19°C° 0 mm 1 mps 654 mmHg 80%
    01:00 +19°C° 0 mm 1 mps 654 mmHg 84%
    02:00 +18°C° 0 mm 1 mps 653 mmHg 89%
    03:00 +18°C° 0 mm 1 mps 653 mmHg 89%
    04:00 +18°C° 0 mm 1 mps 653 mmHg 90%
    05:00 +16°C° 0 mm 1 mps 654 mmHg 91%
    06:00 +21°C° 0 mm 1 mps 655 mmHg 75%
    07:00 +24°C° 0 mm 1 mps 656 mmHg 59%
    08:00 +28°C° 0 mm 1 mps 657 mmHg 43%
    09:00 +30°C° 0 mm 1 mps 658 mmHg 36%
    10:00 +32°C° 0 mm 1 mps 658 mmHg 30%
    11:00 +36°C° 0 mm 2 mps 658 mmHg 23%
    12:00 +35°C° 0 mm 2 mps 657 mmHg 23%
    13:00 +35°C° 0 mm 2 mps 656 mmHg 22%
    14:00 +35°C° 0 mm 2 mps 655 mmHg 22%
    15:00 +34°C° 0 mm 2 mps 654 mmHg 23%
    16:00 +32°C° 0 mm 2 mps 654 mmHg 25%
    17:00 +31°C° 0 mm 2 mps 654 mmHg 26%
    18:00 +29°C° 0 mm 2 mps 654 mmHg 30%
    19:00 +27°C° 0 mm 2 mps 654 mmHg 33%
    20:00 +25°C° 0 mm 2 mps 654 mmHg 37%
    21:00 +24°C° 0 mm 2 mps 654 mmHg 44%
    22:00 +23°C° 0 mm 1 mps 654 mmHg 50%
    23:00 +21°C° 0 mm 1 mps 654 mmHg 57%

    18 November, Sunday

    Time Temperature Precipitation Wind Pressure Humidity
    00:00 +21°C° 0 mm 1 mps 653 mmHg 62%
    01:00 +20°C° 0 mm 1 mps 653 mmHg 67%
    02:00 +19°C° 0 mm 1 mps 652 mmHg 73%
    03:00 +19°C° 0 mm 1 mps 652 mmHg 75%
    04:00 +19°C° 0 mm 1 mps 652 mmHg 77%
    05:00 +18°C° 0 mm 1 mps 653 mmHg 79%
    06:00 +22°C° 0 mm 1 mps 654 mmHg 65%
    07:00 +26°C° 0 mm 1 mps 656 mmHg 52%
    08:00 +30°C° 0 mm 1 mps 657 mmHg 39%
    09:00 +31°C° 0 mm 1 mps 657 mmHg 34%
    10:00 +32°C° 0 mm 2 mps 657 mmHg 29%
    11:00 +34°C° 0 mm 2 mps 657 mmHg 25%
    12:00 +34°C° 0 mm 3 mps 656 mmHg 26%
    13:00 +34°C° 0 mm 3 mps 655 mmHg 27%
    14:00 +33°C° 0 mm 3 mps 654 mmHg 28%
    15:00 +31°C° 0 mm 3 mps 654 mmHg 30%
    16:00 +31°C° 0 mm 3 mps 654 mmHg 31%
    17:00 +30°C° 0 mm 4 mps 654 mmHg 33%
    18:00 +28°C° 0 mm 3 mps 654 mmHg 41%
    19:00 +26°C° 0 mm 3 mps 654 mmHg 48%
    20:00 +24°C° 0 mm 3 mps 654 mmHg 56%
    21:00 +21°C° 0 mm 3 mps 654 mmHg 65%
    22:00 +20°C° 0 mm 2 mps 654 mmHg 73%
    23:00 +19°C° 0 mm 2 mps 654 mmHg 81%
    Show more